Flag for Saint Lucia Weather past 2 weeks in Vieux Fort, Saint Lucia

Now
81 °F

Passing clouds.


Feels Like: 85 °F
Forecast: 79 / 84 °F
Wind: 22 mph from Southeast

Location: Hewanorra International Airport

Current Time: Apr 19, 2015 at 4:29:39 AM

Latest Report: Apr 19, 2015 at 3:00 AM


Visibility: N/A

Pressure: 29.95 "Hg

Humidity: 74%

Dew point: 72 °F

Location of Vieux FortLocation

Historic Weather in Vieux Fort — Graph

°F

Vieux Fort temperature yesterday

Maximum temperature yesterday: 86 °F (at 11:00 AM)
Minimum temperature yesterday: 79 °F (at 12:00 AM)
Average temperature yesterday: 82 °F

Past Weeks' High & Low Weather Summary

 TemperatureHumidityPressure
High86 °F (Apr 4, 12:00 PM)89% (Apr 8, 4:00 AM)30.09 "Hg (Apr 8, 4:00 AM)
Low75 °F (Apr 9, 5:00 AM)58% (Apr 4, 2:00 PM)29.86 "Hg (Apr 5, 3:00 AM)
Average81 °F74%29.98 "Hg
* Reported Apr 4 3:00 AM — Apr 19 3:00 AM, Vieux Fort, Weather by CustomWeather, © 2015

Note: Actual official high and low records may vary slightly from our data, if they occured in-between our weather recording intervals... More about our weather records

Advertising

Vieux Fort weather history for previous 24 hours

 ConditionsComfort  
Time TempWeatherWind HumidityBarometerVisibility
3:00 AM
Sun, Apr 19
81 °FPassing clouds.22 mph74%29.95 "HgN/A
2:00 AM81 °FPartly cloudy.21 mph79%29.95 "HgN/A
1:00 AM81 °FPassing clouds.17 mph74%29.98 "HgN/A
12:00 AM81 °FPassing clouds.20 mph79%29.98 "HgN/A
11:00 PM
Sat, Apr 18
81 °FPassing clouds.17 mph74%30.01 "HgN/A
10:00 PM81 °FPassing clouds.20 mph74%30.01 "HgN/A
9:00 PM81 °FPassing clouds.20 mph79%30.01 "HgN/A
8:00 PM81 °FPartly cloudy.18 mph79%29.98 "HgN/A
7:00 PM81 °FPassing clouds.20 mph79%29.98 "HgN/A
6:00 PM82 °FPartly sunny.18 mph74%29.95 "HgN/A
5:00 PM82 °FPartly sunny.17 mph74%29.95 "HgN/A
4:00 PM82 °FPartly sunny.17 mph74%29.95 "HgN/A
3:00 PM84 °FPartly sunny.17 mph70%29.98 "HgN/A
2:00 PM84 °FPartly sunny.20 mph70%29.98 "HgN/A
1:00 PM86 °FPartly sunny.22 mph66%30.01 "HgN/A
12:00 PM86 °FPartly sunny.23 mph66%30.04 "HgN/A
11:00 AM86 °FPartly sunny.23 mph62%30.04 "HgN/A
10:00 AM84 °FPartly sunny.22 mph66%30.04 "HgN/A
9:00 AM84 °FPartly sunny.23 mph70%30.04 "HgN/A
8:00 AM82 °FBroken clouds.21 mph74%30.04 "HgN/A
7:00 AM81 °FBroken clouds.18 mph74%30.01 "HgN/A
6:00 AM81 °FScattered showers. Broken clouds.18 mph74%29.98 "HgN/A
5:00 AM81 °FPassing clouds.23 mph74%29.98 "HgN/A
4:00 AM81 °FPartly cloudy.17 mph79%29.95 "HgN/A
Weather by CustomWeather, © 2015

See weather overviewHow to use our weather pages